Mercury, NV

4:40 PM PDT on July 25, 2017 (GMT -0700)
Mercury

Weather History for KDRA - November, 2013

Change the Weather History Date:

Tuesday, November 26, 2013

  Actual Average Record
Temperature  
Mean Temperature 50 °F 47 °F  
Max Temperature 60 °F 59 °F 73 °F (2014)
Min Temperature 39 °F 35 °F 24 °F (2010)
Degree Days  
Heating Degree Days 16    
Cooling Degree Days 0    
Moisture  
Dew Point 31 °F    
Average Humidity 48    
Maximum Humidity 73    
Minimum Humidity 24    
Precipitation  
Precipitation 0.00 in 0.01 in 0.53 in (2008)
Month to date precipitation 0.29  
Year to date precipitation 5.24  
Sea Level Pressure  
Sea Level Pressure 30.22 in    
Wind  
Wind Speed 7 mph (East)    
Max Wind Speed 15 mph    
Max Gust Speed -    
Visibility 10 miles    
Events      
T = Trace of Precipitation, MM = Missing Value Source: NWS Daily Summary

Daily Weather History Graph

Daily Weather History Graph

Search for Another Location

Airport or City:

Trip Planner

Search our weather history database for the weather conditions in past years. The results will help you decide how hot, cold, wet, or windy it might be!

Date:

Astronomy

Nov. 26, 2013 Rise Set
Actual Time 6:33 AM PST 4:29 PM PST
Civil Twilight 6:05 AM PST 4:57 PM PST
Nautical Twilight 5:33 AM PST 5:29 PM PST
Astronomical Twilight 5:02 AM PST 6:00 PM PST
Moon No Moon Rise 12:29 PM PST (11/26)
Length of Visible Light 10h 52m
Length of Day
9h 56m
Last Quarter, 40% of the Moon is Illuminated
Nov 26
Last Quarter
Dec 2
New
Dec 9
First Quarter
Dec 17
Full
Dec 25
Last Quarter

Hourly Weather History & Observations

Time (PST) Temp. Windchill Dew Point Humidity Pressure Visibility Wind Dir Wind Speed Gust Speed Precip Events Conditions
12:52 AM 44.1 °F 41.5 °F 30.0 °F 58% 30.25 in 10.0 mi East 4.6 mph - N/A   Clear
1:52 AM 48.0 °F - 28.0 °F 46% 30.25 in 10.0 mi ENE 5.8 mph - N/A   Clear
2:52 AM 45.0 °F 42.6 °F 28.9 °F 53% 30.25 in 10.0 mi ENE 4.6 mph - N/A   Clear
3:52 AM 44.1 °F 40.8 °F 28.9 °F 55% 30.25 in 10.0 mi ENE 5.8 mph - N/A   Clear
4:52 AM 43.0 °F - 28.0 °F 56% 30.26 in 10.0 mi Calm Calm - N/A   Clear
5:52 AM 44.1 °F - 28.0 °F 53% 30.27 in 10.0 mi Calm Calm - N/A   Clear
6:52 AM 45.0 °F - 28.0 °F 52% 30.28 in 10.0 mi Calm Calm - N/A   Clear
7:52 AM 48.9 °F - 28.9 °F 46% 30.28 in 10.0 mi ESE 4.6 mph - N/A   Clear
8:52 AM 51.1 °F - 32.0 °F 48% 30.28 in 10.0 mi ESE 12.7 mph - N/A   Clear
9:52 AM 55.0 °F - 28.9 °F 37% 30.27 in 10.0 mi ESE 15.0 mph - N/A   Clear
10:52 AM 55.9 °F - 28.9 °F 36% 30.25 in 10.0 mi ESE 13.8 mph - N/A   Clear
11:52 AM 59.0 °F - 28.9 °F 32% 30.22 in 10.0 mi ESE 13.8 mph - N/A   Clear
12:52 PM 60.1 °F - 28.9 °F 31% 30.20 in 10.0 mi ESE 15.0 mph - N/A   Clear
1:52 PM 60.1 °F - 28.9 °F 31% 30.17 in 10.0 mi ESE 12.7 mph - N/A   Clear
2:52 PM 59.0 °F - 30.0 °F 33% 30.16 in 10.0 mi ESE 13.8 mph - N/A   Clear
3:52 PM 57.0 °F - 32.0 °F 39% 30.16 in 10.0 mi ESE 13.8 mph - N/A   Clear
4:52 PM 53.1 °F - 34.0 °F 48% 30.17 in 10.0 mi ESE 12.7 mph - N/A   Clear
5:52 PM 51.1 °F - 34.0 °F 52% 30.18 in 10.0 mi East 9.2 mph - N/A   Clear
6:52 PM 48.9 °F - 32.0 °F 52% 30.18 in 10.0 mi ENE 4.6 mph - N/A   Clear
7:52 PM 48.9 °F - 33.1 °F 54% 30.18 in 10.0 mi East 10.4 mph - N/A   Clear
8:52 PM 44.1 °F 42.5 °F 33.1 °F 65% 30.19 in 10.0 mi WNW 3.5 mph - N/A   Clear
9:52 PM 44.1 °F 42.5 °F 33.1 °F 65% 30.19 in 10.0 mi ENE 3.5 mph - N/A   Clear
10:52 PM 42.1 °F 40.2 °F 34.0 °F 73% 30.19 in 10.0 mi NE 3.5 mph - N/A   Clear
11:52 PM 43.0 °F 40.3 °F 33.1 °F 68% 30.16 in 10.0 mi NE 4.6 mph - N/A   Clear